Washington, PA

4:13 AM EDT on April 23, 2017 (GMT -0400)
Washington County

Weather History for KAFJ - November, 2011

Change the Weather History Date:

Monday, November 21, 2011

  Actual Average Record
Temperature  
Mean Temperature 44 °F -  
Max Temperature 46 °F 47 °F 78 °F (2007)
Min Temperature 41 °F 30 °F 12 °F (2014)
Degree Days  
Heating Degree Days 22    
Moisture  
Dew Point 41 °F    
Average Humidity 91    
Maximum Humidity 100    
Minimum Humidity 87    
Precipitation  
Precipitation 0.11 in - - ()
Sea Level Pressure  
Sea Level Pressure 30.24 in    
Wind  
Wind Speed 5 mph (NNE)    
Max Wind Speed 8 mph    
Max Gust Speed -    
Visibility 6 miles    
Events      
Averages and records for this station are not official NWS values.
T = Trace of Precipitation, MM = Missing Value Source: NWS Daily Summary

Daily Weather History Graph

Daily Weather History Graph

Search for Another Location

Airport or City:

Trip Planner

Search our weather history database for the weather conditions in past years. The results will help you decide how hot, cold, wet, or windy it might be!

Date:

Astronomy

Nov. 21, 2011 Rise Set
Actual Time 7:13 AM EST 5:00 PM EST
Civil Twilight 6:43 AM EST 5:29 PM EST
Nautical Twilight 6:10 AM EST 6:03 PM EST
Astronomical Twilight 5:38 AM EST 6:35 PM EST
Moon 2:49 AM EST (11/21) 2:22 PM EST (11/21)
Length of Visible Light 10h 46m
Length of Day
9h 47m
Waning Crescent, 18% of the Moon is Illuminated
Nov 21
Waning Crescent
Nov 25
New
Dec 2
First Quarter
Dec 10
Full
Dec 17
Last Quarter

Hourly Weather History & Observations

Time (EST) Temp. Windchill Dew Point Humidity Pressure Visibility Wind Dir Wind Speed Gust Speed Precip Events Conditions
12:15 AM 46.4 °F 44.3 °F 44.6 °F 93% 30.21 in 5.0 mi North 4.6 mph - N/A   Overcast
12:35 AM 46.4 °F 43.5 °F 44.6 °F 93% 30.20 in 5.0 mi NE 5.8 mph - N/A   Overcast
12:55 AM 46.4 °F 44.3 °F 44.6 °F 93% 30.20 in 6.0 mi NNE 4.6 mph - N/A   Overcast
1:15 AM 46.4 °F 44.3 °F 42.8 °F 87% 30.21 in 9.0 mi North 4.6 mph - 0.01 in   Overcast
1:35 AM 46.4 °F 43.5 °F 42.8 °F 87% 30.21 in 9.0 mi North 5.8 mph - 0.01 in   Overcast
1:55 AM 44.6 °F 42.2 °F 42.8 °F 93% 30.21 in 8.0 mi North 4.6 mph - 0.01 in   Overcast
2:15 AM 44.6 °F 40.7 °F 42.8 °F 93% 30.20 in 9.0 mi North 6.9 mph - N/A   Overcast
2:35 AM 44.6 °F 42.2 °F 42.8 °F 93% 30.21 in 10.0 mi North 4.6 mph - N/A   Overcast
2:55 AM 44.6 °F 41.4 °F 42.8 °F 93% 30.21 in 9.0 mi North 5.8 mph - N/A   Overcast
3:35 AM 44.6 °F 40.7 °F 41.0 °F 87% 30.22 in 10.0 mi North 6.9 mph - N/A   Overcast
3:55 AM 44.6 °F 41.4 °F 41.0 °F 87% 30.23 in 9.0 mi North 5.8 mph - N/A   Overcast
4:15 AM 44.6 °F 40.2 °F 41.0 °F 87% 30.23 in 10.0 mi North 8.1 mph - N/A   Overcast
4:35 AM 42.8 °F 39.3 °F 39.2 °F 87% 30.23 in 10.0 mi North 5.8 mph - N/A   Overcast
4:55 AM 42.8 °F 40.1 °F 39.2 °F 87% 30.24 in 10.0 mi NNE 4.6 mph - N/A   Overcast
5:15 AM 42.8 °F 39.3 °F 39.2 °F 87% 30.25 in 10.0 mi NNE 5.8 mph - N/A   Overcast
5:55 AM 42.8 °F 41.1 °F 39.2 °F 87% 30.26 in 10.0 mi North 3.5 mph - N/A   Overcast
6:15 AM 42.8 °F 40.1 °F 39.2 °F 87% 30.26 in 10.0 mi NNE 4.6 mph - N/A   Overcast
6:35 AM 42.8 °F 39.3 °F 39.2 °F 87% 30.25 in 5.0 mi NNE 5.8 mph - N/A   Overcast
6:55 AM 42.8 °F 40.1 °F 39.2 °F 87% 30.27 in 5.0 mi NNE 4.6 mph - 0.01 in   Overcast
7:15 AM 42.8 °F 41.1 °F 39.2 °F 87% 30.28 in 7.0 mi North 3.5 mph - 0.03 in   Overcast
7:35 AM 42.8 °F 41.1 °F 39.2 °F 87% 30.27 in 5.0 mi North 3.5 mph - 0.04 in   Overcast
7:55 AM 41.0 °F 39.0 °F 39.2 °F 93% 30.28 in 3.0 mi North 3.5 mph - 0.04 in   Overcast
8:15 AM 41.0 °F 37.1 °F 39.2 °F 93% 30.29 in 3.0 mi North 5.8 mph - 0.01 in   Overcast
8:35 AM 41.0 °F 37.1 °F 39.2 °F 93% 30.27 in 1.5 mi ENE 5.8 mph - 0.02 in   Overcast
8:55 AM 41.0 °F 37.1 °F 39.2 °F 93% 30.29 in 4.0 mi NNE 5.8 mph - 0.02 in   Overcast
9:15 AM 41.0 °F - 39.2 °F 93% 30.28 in 8.0 mi Calm Calm - 0.01 in   Overcast
9:35 AM 42.8 °F 39.3 °F 39.2 °F 87% 30.29 in 6.0 mi NW 5.8 mph - 0.01 in   Overcast
9:55 AM 42.8 °F 41.1 °F 39.2 °F 87% 30.30 in 2.5 mi NNE 3.5 mph - 0.01 in   Overcast
10:15 AM 42.8 °F 40.1 °F 39.2 °F 87% 30.29 in 5.0 mi NNE 4.6 mph - N/A   Overcast
10:35 AM 42.8 °F 39.3 °F 39.2 °F 87% 30.28 in 6.0 mi NE 5.8 mph - N/A   Overcast
10:55 AM 42.8 °F 40.1 °F 41.0 °F 93% 30.27 in 8.0 mi ENE 4.6 mph - N/A   Overcast
11:15 AM 42.8 °F 40.1 °F 41.0 °F 93% 30.28 in 8.0 mi North 4.6 mph - N/A   Overcast
11:35 AM 42.8 °F 40.1 °F 41.0 °F 93% 30.27 in 7.0 mi NNE 4.6 mph - N/A   Overcast
11:55 AM 42.8 °F 41.1 °F 41.0 °F 93% 30.25 in 5.0 mi NE 3.5 mph - N/A   Overcast
12:15 PM 42.8 °F 40.1 °F 41.0 °F 93% 30.25 in 6.0 mi North 4.6 mph - N/A   Overcast
12:35 PM 42.8 °F 41.1 °F 41.0 °F 93% 30.24 in 5.0 mi NE 3.5 mph - 0.01 in   Overcast
12:55 PM 42.8 °F 41.1 °F 41.0 °F 93% 30.23 in 5.0 mi NE 3.5 mph - 0.02 in   Overcast
1:15 PM 42.8 °F - 41.0 °F 93% 30.24 in 5.0 mi Calm Calm - N/A   Overcast
1:35 PM 42.8 °F 41.1 °F 42.8 °F 100% 30.23 in 3.0 mi NNE 3.5 mph - N/A   Overcast
1:55 PM 42.8 °F 41.1 °F 41.0 °F 93% 30.23 in 4.0 mi North 3.5 mph - N/A   Overcast
2:15 PM 44.6 °F 41.4 °F 42.8 °F 93% 30.22 in 5.0 mi NNE 5.8 mph - N/A   Overcast
2:35 PM 44.6 °F 42.2 °F 41.0 °F 87% 30.23 in 5.0 mi NE 4.6 mph - N/A   Overcast
2:55 PM 44.6 °F 42.2 °F 42.8 °F 93% 30.22 in 5.0 mi NNE 4.6 mph - N/A   Overcast
3:15 PM 44.6 °F 40.7 °F 42.8 °F 93% 30.22 in 5.0 mi NE 6.9 mph - N/A   Overcast
3:35 PM 44.6 °F 41.4 °F 42.8 °F 93% 30.23 in 5.0 mi North 5.8 mph - N/A   Overcast
3:55 PM 44.6 °F 43.1 °F 41.0 °F 87% 30.23 in 6.0 mi NE 3.5 mph - N/A   Overcast
4:15 PM 44.6 °F 42.2 °F 42.8 °F 93% 30.24 in 6.0 mi NE 4.6 mph - N/A   Overcast
4:35 PM 44.6 °F 42.2 °F 41.0 °F 87% 30.24 in 6.0 mi NE 4.6 mph - N/A   Overcast
4:55 PM 44.6 °F 42.2 °F 42.8 °F 93% 30.24 in 4.0 mi NNE 4.6 mph - N/A   Overcast
5:15 PM 44.6 °F 41.4 °F 41.0 °F 87% 30.24 in 5.0 mi NE 5.8 mph - N/A   Overcast
5:55 PM 42.8 °F 40.1 °F 41.0 °F 93% 30.24 in 5.0 mi NE 4.6 mph - N/A   Overcast
6:15 PM 42.8 °F 40.1 °F 41.0 °F 93% 30.24 in 6.0 mi NE 4.6 mph - N/A   Overcast
6:35 PM 42.8 °F 38.6 °F 41.0 °F 93% 30.24 in 7.0 mi NNE 6.9 mph - N/A   Overcast
6:55 PM 42.8 °F 41.1 °F 41.0 °F 93% 30.24 in 7.0 mi NNE 3.5 mph - N/A   Overcast
7:15 PM 42.8 °F 39.3 °F 41.0 °F 93% 30.24 in 5.0 mi NNE 5.8 mph - N/A   Overcast
7:35 PM 42.8 °F 38.6 °F 41.0 °F 93% 30.23 in 5.0 mi NE 6.9 mph - N/A   Overcast
7:55 PM 42.8 °F 38.0 °F 41.0 °F 93% 30.23 in 6.0 mi NNE 8.1 mph - N/A   Overcast
8:15 PM 42.8 °F 38.6 °F 41.0 °F 93% 30.22 in 5.0 mi NE 6.9 mph - N/A   Overcast
8:35 PM 42.8 °F 41.1 °F 39.2 °F 87% 30.23 in 5.0 mi NE 3.5 mph - N/A   Overcast
8:55 PM 42.8 °F 39.3 °F 41.0 °F 93% 30.21 in 5.0 mi NE 5.8 mph - N/A   Overcast
9:15 PM 42.8 °F 41.1 °F 41.0 °F 93% 30.22 in 7.0 mi NNE 3.5 mph - N/A   Overcast
9:35 PM 42.8 °F 41.1 °F 41.0 °F 93% 30.23 in 7.0 mi NNE 3.5 mph - N/A   Overcast
10:35 PM 42.8 °F - 41.0 °F 93% 30.22 in 6.0 mi Calm Calm - N/A   Overcast
10:55 PM 42.8 °F 41.1 °F 41.0 °F 93% 30.21 in 6.0 mi NE 3.5 mph - N/A   Overcast
11:15 PM 42.8 °F 39.3 °F 41.0 °F 93% 30.21 in 6.0 mi NNE 5.8 mph - N/A   Overcast
11:35 PM 42.8 °F 41.1 °F 41.0 °F 93% 30.21 in 6.0 mi NNE 3.5 mph - N/A   Overcast
11:55 PM 42.8 °F 41.1 °F 41.0 °F 93% 30.21 in 6.0 mi NNE 3.5 mph - N/A   Overcast